Tracking 18942 objects as of 18-Jan-2018
HD Live streaming from Space Station
objects crossing your sky now

FENGYUN 1C DEB

Track FENGYUN 1C DEB now!
10-day predictions


NORAD ID: 30860
Int'l Code: 1999-025AWW
Perigee: 824.6 km
Apogee: 893.0 km
Inclination: 99.1 °
Period: 102.0 minutes
Semi major axis: 7229 km
RCS: 0.0064 m2 (small)
Launch date: May 10, 1999
Source: People's Republic of China (PRC)
Launch site: Taiyaun Space Center, China (TSC)

Note: This is SATELLITE DEBRIS
aabbcc
Your satellite tracking list
Your tracking list is empty




NASA's NSSDC Master Catalog

Two Line Element Set (TLE):
1 30860U 99025AWW 18017.97632778  .00000653  00000-0  37555-3 0  9990
2 30860  99.0825  24.3117 0047312  93.0984 267.5602 14.12264206557216
Source of the keplerian elements: AFSPC